Total_Precipitation_Accumulation
0.34 0.26 0.27 0.27 0.22 0.16 0.12 0.13 0.16 0.18 0.14 0.09 0.08 0.07 0.05 0.05 0.05 0.04 0.03 0.03 0.03 0.05 0.07 0.10 0.12 0.15 0.23 0.24 0.21 0.22 0.17 0.15 0.14 0.15 0.16 0.17 0.16 0.12 0.12 0.15 0.17 0.19 0.20
0.39 0.49 0.42 0.41 0.31 0.25 0.23 0.23 0.33 0.35 0.30 0.21 0.13 0.08 0.06 0.08 0.13 0.09 0.08 0.11 0.08 0.06 0.07 0.09 0.12 0.20 0.34 0.33 0.29 0.38 0.37 0.25 0.21 0.18 0.16 0.17 0.19 0.17 0.16 0.17 0.18 0.19 0.20
0.27 0.33 0.53 0.54 0.43 0.44 0.61 0.67 0.80 0.70 0.58 0.39 0.21 0.13 0.13 0.11 0.10 0.17 0.19 0.16 0.13 0.11 0.09 0.10 0.16 0.15 0.16 0.26 0.49 0.64 0.57 0.51 0.40 0.36 0.25 0.23 0.20 0.19 0.17 0.17 0.16 0.17 0.19
0.16 0.25 0.21 0.24 0.38 0.50 0.57 0.55 0.62 0.77 0.79 0.72 0.47 0.31 0.28 0.26 0.23 0.21 0.20 0.15 0.12 0.11 0.12 0.10 0.18 0.20 0.16 0.17 0.34 0.63 0.76 0.70 0.45 0.39 0.36 0.34 0.31 0.24 0.20 0.19 0.18 0.15 0.17
0.15 0.20 0.24 0.29 0.35 0.39 0.43 0.48 0.61 0.65 0.74 0.66 0.56 0.63 0.81 0.81 0.58 0.43 0.31 0.20 0.17 0.16 0.13 0.16 0.19 0.27 0.34 0.31 0.24 0.46 0.70 0.83 0.76 0.62 0.60 0.56 0.44 0.31 0.26 0.26 0.25 0.21 0.21
0.16 0.25 0.25 0.28 0.36 0.35 0.34 0.39 0.47 0.53 0.51 0.51 0.55 0.50 0.48 0.60 0.81 0.85 0.76 0.68 0.49 0.35 0.28 0.27 0.30 0.31 0.33 0.30 0.30 0.31 0.46 0.74 0.95 0.92 0.80 0.82 0.67 0.52 0.44 0.46 0.43 0.33 0.29
0.40 0.29 0.26 0.22 0.20 0.17 0.18 0.23 0.33 0.35 0.28 0.41 0.55 0.27 0.21 0.19 0.16 0.13 0.24 0.37 0.40 0.35 0.33 0.37 0.43 0.47 0.52 0.61 0.50 0.42 0.46 0.63 0.82 0.98 1.00 0.99 1.00 1.00 1.02 1.02 1.05 1.04 0.84
0.78 0.67 0.49 0.43 0.32 0.32 0.29 0.24 0.25 0.28 0.28 0.47 0.64 0.50 0.24 0.12 0.09 0.09 0.14 0.17 0.21 0.40 0.40 0.40 0.46 0.47 0.48 0.52 0.68 0.65 0.46 0.62 0.87 1.16 1.27 1.35 1.38 1.27 1.27 1.37 1.31 1.16 1.04
1.28 1.33 1.23 1.19 1.11 0.87 0.65 0.62 0.53 0.52 0.54 0.51 0.61 0.77 0.45 0.22 0.18 0.18 0.16 0.21 0.27 0.36 0.45 0.63 0.75 0.59 0.52 0.56 0.68 0.71 0.64 0.54 0.70 0.97 1.26 1.33 1.49 1.59 1.78 1.94 1.98 1.83 1.90
1.82 2.19 2.32 2.17 2.01 1.64 1.55 1.66 1.67 1.48 1.46 1.13 1.06 0.99 0.93 0.67 0.56 0.41 0.30 0.34 0.48 1.09 1.37 1.21 1.08 1.26 1.29 1.04 1.02 1.12 1.25 1.21 0.97 1.13 1.53 1.92 2.24 2.53 2.58 2.49 2.29 1.96 1.99
2.07 2.00 2.29 2.74 2.77 2.89 2.57 2.23 2.23 2.22 2.12 2.09 1.85 1.64 1.44 1.34 1.38 1.27 0.85 0.63 0.56 0.97 0.83 0.77 0.75 0.72 1.05 1.45 1.68 1.43 1.03 0.95 1.18 1.35 1.61 2.22 2.52 2.88 3.68 4.10 3.18 3.16 3.10
2.17 1.97 2.42 2.67 2.93 2.64 2.42 2.55 2.46 2.20 2.03 1.76 1.68 1.64 1.48 1.31 1.15 1.16 0.91 0.55 0.42 0.35 0.30 0.35 0.50 0.58 0.55 0.57 0.76 1.03 1.22 1.15 0.90 0.99 1.26 1.52 1.58 1.71 2.10 3.25 4.04 3.96 3.78
2.00 2.00 1.59 1.94 2.12 2.30 2.51 2.23 2.04 1.88 1.91 2.06 1.91 1.77 1.79 1.64 1.47 1.31 1.23 0.82 0.57 0.50 0.64 0.66 0.61 0.60 0.59 0.58 0.54 0.63 0.67 0.97 1.25 1.22 1.19 1.17 1.19 1.28 1.36 1.71 2.20 3.04 4.08
1.37 1.37 1.41 1.25 1.27 1.40 1.61 1.73 1.58 1.44 1.36 1.35 1.34 1.37 1.40 1.37 1.27 1.27 1.48 1.60 1.34 0.80 0.53 0.59 0.66 0.65 0.67 0.65 0.72 0.84 0.75 0.92 1.02 1.19 1.30 1.43 1.48 1.39 1.40 1.49 1.72 2.17 2.20
1.05 1.12 1.22 1.32 1.26 1.29 1.35 1.36 1.31 1.22 1.16 1.01 0.95 0.99 1.04 0.96 0.95 0.97 1.09 1.30 1.53 1.37 0.91 0.65 0.67 0.68 0.70 0.78 0.94 0.99 1.01 1.14 1.13 1.13 1.16 1.21 1.30 1.22 1.14 1.13 1.24 1.28 1.31
0.70 1.21 1.17 0.88 0.89 0.94 1.13 1.41 1.40 1.22 1.19 1.18 1.09 1.08 1.08 1.05 1.00 0.93 0.94 1.01 1.24 1.45 1.37 0.79 0.78 0.85 0.89 0.96 1.04 0.92 0.81 0.96 0.88 0.87 0.90 0.92 0.87 0.82 0.82 0.84 0.88 0.86 0.91
0.46 0.72 1.00 1.16 1.04 0.89 0.87 0.93 0.94 1.03 1.22 1.24 1.26 1.25 1.13 1.19 1.48 1.55 1.51 1.56 1.72 1.94 2.10 1.47 1.05 0.96 0.91 0.84 0.86 0.83 0.75 0.63 0.59 0.77 0.68 0.66 0.62 0.57 0.60 0.60 0.59 0.60 0.59
0.06 0.09 0.14 0.22 0.30 0.47 0.60 0.62 0.64 0.68 0.74 0.82 0.89 1.02 0.97 0.96 0.99 0.97 1.03 1.13 1.24 1.36 1.63 1.46 1.08 1.05 1.02 0.96 0.95 0.94 0.89 0.83 0.76 0.92 0.81 0.58 0.42 0.32 0.31 0.32 0.37 0.40 0.42
0.08 0.07 0.05 0.05 0.06 0.06 0.07 0.11 0.20 0.33 0.47 0.60 0.69 0.70 0.66 0.77 0.82 0.93 1.07 1.21 1.27 1.40 1.58 1.59 1.25 1.08 1.01 0.98 1.02 0.99 0.94 0.90 0.84 0.98 0.85 0.69 0.67 0.60 0.49 0.46 0.43 0.38 0.30
0.07 0.06 0.08 0.08 0.07 0.06 0.08 0.13 0.17 0.20 0.23 0.28 0.36 0.48 0.58 0.72 0.84 0.97 1.05 1.04 1.10 1.22 1.23 1.23 1.04 0.78 0.61 0.57 0.67 0.62 0.56 0.51 0.49 0.56 0.62 0.53 0.54 0.52 0.50 0.47 0.45 0.44 0.41
0.06 0.04 0.08 0.15 0.17 0.17 0.16 0.13 0.13 0.14 0.18 0.23 0.27 0.31 0.33 0.46 0.57 0.62 0.77 0.86 1.00 1.17 1.30 1.30 1.03 0.79 0.53 0.35 0.29 0.26 0.33 0.31 0.34 0.33 0.31 0.32 0.31 0.26 0.23 0.26 0.25 0.32 0.40
0.08 0.12 0.11 0.11 0.14 0.18 0.36 0.28 0.18 0.16 0.18 0.23 0.28 0.36 0.45 0.59 0.53 0.51 0.46 0.43 0.43 0.59 0.77 0.85 0.86 0.71 0.56 0.52 0.57 0.62 0.62 0.58 0.47 0.19 0.15 0.12 0.12 0.11 0.13 0.19 0.30 0.33 0.31
0.24 0.23 0.22 0.26 0.25 0.24 0.35 0.29 0.34 0.36 0.42 0.47 0.48 0.45 0.37 0.35 0.35 0.29 0.29 0.31 0.35 0.35 0.37 0.34 0.30 0.21 0.22 0.27 0.43 0.56 0.57 0.55 0.42 0.23 0.34 0.32 0.16 0.08 0.04 0.12 0.23 0.22 0.29
0.46 0.54 0.56 0.58 0.64 0.76 0.80 0.68 0.55 0.44 0.46 0.48 0.45 0.40 0.33 0.26 0.19 0.14 0.17 0.22 0.11 0.08 0.13 0.20 0.21 0.28 0.39 0.44 0.59 0.79 0.73 0.66 0.58 0.40 0.37 0.41 0.14 0.12 0.06 0.05 0.12 0.10 0.17
0.78 0.78 0.68 0.55 0.60 0.71 0.67 0.50 0.45 0.39 0.29 0.19 0.14 0.07 0.03 0.03 0.05 0.11 0.12 0.06 0.03 0.03 0.09 0.17 0.26 0.33 0.40 0.46 0.49 0.64 0.91 0.98 0.89 0.46 0.33 0.40 0.21 0.18 0.16 0.11 0.10 0.12 0.08
0.66 0.58 0.63 0.60 0.51 0.43 0.32 0.20 0.12 0.08 0.06 0.02 0.01 0.00 0.02 0.02 0.07 0.13 0.10 0.06 0.08 0.02 0.08 0.09 0.11 0.13 0.18 0.26 0.38 0.43 0.48 0.85 0.69 0.67 0.33 0.55 0.42 0.45 0.74 0.28 0.16 0.16 0.13